Meteo pe oră la Bolshoe Oparino

Astăzi, 6 Mai, Joi

Timp Temperatura Precipitaţii Vânt Presiune Umiditate
00:00 +3°C° 0 mm 4 m/s 747 mmHg 85%
01:00 +1°C° 0 mm 4 m/s 747 mmHg 88%
02:00 +2°C° 0 mm 3 m/s 748 mmHg 90%
03:00 +1°C° 0 mm 3 m/s 748 mmHg 95%
04:00 +2°C° 0 mm 3 m/s 748 mmHg 91%
05:00 +3°C° 0 mm 3 m/s 749 mmHg 88%
06:00 +4°C° 0 mm 3 m/s 749 mmHg 84%
07:00 +4°C° 0 mm 3 m/s 750 mmHg 81%
08:00 +5°C° 0 mm 3 m/s 750 mmHg 77%
09:00 +7°C° 0 mm 3 m/s 751 mmHg 73%
10:00 +8°C° 0 mm 3 m/s 751 mmHg 69%
11:00 +10°C° 0 mm 3 m/s 751 mmHg 65%
12:00 +12°C° 0 mm 3 m/s 751 mmHg 62%
13:00 +13°C° 0 mm 3 m/s 751 mmHg 58%
14:00 +14°C° 0 mm 3 m/s 750 mmHg 55%
15:00 +17°C° 0 mm 4 m/s 750 mmHg 52%
16:00 +16°C° 0 mm 3 m/s 750 mmHg 58%
17:00 +16°C° 0 mm 3 m/s 750 mmHg 64%
18:00 +14°C° 0 mm 3 m/s 750 mmHg 70%
19:00 +13°C° 0 mm 3 m/s 750 mmHg 75%
20:00 +12°C° 0 mm 3 m/s 750 mmHg 80%
21:00 +10°C° 0 mm 3 m/s 751 mmHg 86%
22:00 +10°C° 0 mm 3 m/s 751 mmHg 86%
23:00 +10°C° 0 mm 3 m/s 751 mmHg 86%

Mâine, 7 Mai, Vineri

Timp Temperatura Precipitaţii Vânt Presiune Umiditate
00:00 +9°C° 0 mm 3 m/s 751 mmHg 86%
01:00 +8°C° 0 mm 4 m/s 751 mmHg 86%
02:00 +8°C° 0 mm 4 m/s 751 mmHg 85%
03:00 +8°C° 0 mm 4 m/s 751 mmHg 84%
04:00 +10°C° 0 mm 4 m/s 751 mmHg 81%
05:00 +10°C° 0 mm 4 m/s 751 mmHg 78%
06:00 +10°C° 0 mm 5 m/s 751 mmHg 75%
07:00 +12°C° 0 mm 5 m/s 751 mmHg 69%
08:00 +14°C° 0 mm 6 m/s 751 mmHg 63%
09:00 +15°C° 0 mm 6 m/s 751 mmHg 57%
10:00 +16°C° 0 mm 6 m/s 751 mmHg 53%
11:00 +17°C° 0 mm 7 m/s 750 mmHg 50%
12:00 +17°C° 0 mm 7 m/s 750 mmHg 46%
13:00 +17°C° 0.1 mm 7 m/s 750 mmHg 49%
14:00 +17°C° 0.1 mm 7 m/s 750 mmHg 51%
15:00 +17°C° 0.1 mm 7 m/s 750 mmHg 53%
16:00 +16°C° 0.1 mm 6 m/s 750 mmHg 56%
17:00 +15°C° 0.1 mm 6 m/s 750 mmHg 58%
18:00 +15°C° 0.1 mm 5 m/s 750 mmHg 60%
19:00 +13°C° 0.2 mm 5 m/s 750 mmHg 69%
20:00 +12°C° 0.2 mm 4 m/s 751 mmHg 78%
21:00 +11°C° 0.2 mm 3 m/s 751 mmHg 88%
22:00 +10°C° 0.3 mm 3 m/s 752 mmHg 88%
23:00 +9°C° 0.3 mm 2 m/s 752 mmHg 89%

Poimâine, 8 Mai, Sâmbătă

Timp Temperatura Precipitaţii Vânt Presiune Umiditate
00:00 +9°C° 0.3 mm 2 m/s 752 mmHg 89%
01:00 +8°C° 0 mm 2 m/s 753 mmHg 90%
02:00 +7°C° 0 mm 2 m/s 753 mmHg 91%
03:00 +6°C° 0 mm 2 m/s 753 mmHg 92%
04:00 +7°C° 0 mm 2 m/s 753 mmHg 89%
05:00 +8°C° 0 mm 2 m/s 754 mmHg 85%
06:00 +8°C° 0 mm 2 m/s 754 mmHg 82%
07:00 +10°C° 0 mm 3 m/s 754 mmHg 75%
08:00 +11°C° 0 mm 3 m/s 754 mmHg 69%
09:00 +13°C° 0 mm 3 m/s 754 mmHg 62%
10:00 +14°C° 0 mm 3 m/s 754 mmHg 62%
11:00 +16°C° 0 mm 3 m/s 753 mmHg 62%
12:00 +16°C° 0 mm 3 m/s 753 mmHg 61%
13:00 +17°C° 0 mm 3 m/s 753 mmHg 62%
14:00 +17°C° 0 mm 3 m/s 752 mmHg 63%
15:00 +17°C° 0 mm 3 m/s 752 mmHg 64%
16:00 +17°C° 0 mm 3 m/s 752 mmHg 64%
17:00 +17°C° 0 mm 3 m/s 751 mmHg 64%
18:00 +17°C° 0 mm 4 m/s 751 mmHg 64%
19:00 +15°C° 0 mm 4 m/s 751 mmHg 67%
20:00 +14°C° 0 mm 4 m/s 751 mmHg 71%
21:00 +13°C° 0 mm 5 m/s 751 mmHg 75%
22:00 +13°C° 0 mm 5 m/s 751 mmHg 73%
23:00 +13°C° 0 mm 5 m/s 750 mmHg 71%

9 Mai, Duminică

Timp Temperatura Precipitaţii Vânt Presiune Umiditate
00:00 +13°C° 0 mm 5 m/s 750 mmHg 69%
01:00 +13°C° 0 mm 5 m/s 750 mmHg 69%
02:00 +12°C° 0 mm 5 m/s 750 mmHg 69%
03:00 +12°C° 0 mm 5 m/s 750 mmHg 68%
04:00 +11°C° 0 mm 6 m/s 750 mmHg 68%
05:00 +13°C° 0 mm 6 m/s 750 mmHg 67%
06:00 +13°C° 0 mm 6 m/s 750 mmHg 66%
07:00 +14°C° 0 mm 6 m/s 750 mmHg 65%
08:00 +14°C° 0 mm 6 m/s 750 mmHg 64%
09:00 +15°C° 0 mm 6 m/s 750 mmHg 63%
10:00 +15°C° 0 mm 6 m/s 750 mmHg 63%
11:00 +16°C° 0 mm 6 m/s 750 mmHg 62%
12:00 +16°C° 0 mm 6 m/s 750 mmHg 62%
13:00 +16°C° 0 mm 5 m/s 750 mmHg 63%
14:00 +18°C° 0 mm 4 m/s 750 mmHg 64%
15:00 +18°C° 0 mm 3 m/s 750 mmHg 64%
16:00 +17°C° 0.3 mm 4 m/s 751 mmHg 68%
17:00 +15°C° 0.3 mm 4 m/s 751 mmHg 71%
18:00 +15°C° 0.3 mm 5 m/s 751 mmHg 75%
19:00 +13°C° 1.8 mm 4 m/s 752 mmHg 81%
20:00 +11°C° 1.8 mm 4 m/s 753 mmHg 87%
21:00 +9°C° 1.8 mm 3 m/s 754 mmHg 94%
22:00 +9°C° 0.8 mm 3 m/s 754 mmHg 94%
23:00 +8°C° 0.8 mm 3 m/s 754 mmHg 94%

10 Mai, Luni

Timp Temperatura Precipitaţii Vânt Presiune Umiditate
00:00 +8°C° 0.8 mm 2 m/s 754 mmHg 93%
01:00 +8°C° 0.1 mm 2 m/s 755 mmHg 93%
02:00 +8°C° 0.1 mm 2 m/s 756 mmHg 93%
03:00 +8°C° 0.1 mm 2 m/s 756 mmHg 92%
04:00 +8°C° 0 mm 3 m/s 757 mmHg 91%
05:00 +8°C° 0 mm 3 m/s 757 mmHg 89%
06:00 +7°C° 0 mm 4 m/s 758 mmHg 88%
07:00 +8°C° 0.1 mm 4 m/s 759 mmHg 84%
08:00 +8°C° 0.1 mm 4 m/s 759 mmHg 80%
09:00 +8°C° 0.1 mm 4 m/s 760 mmHg 77%
10:00 +10°C° 0 mm 4 m/s 760 mmHg 71%
11:00 +12°C° 0 mm 4 m/s 760 mmHg 64%
12:00 +13°C° 0 mm 4 m/s 760 mmHg 58%
13:00 +13°C° 0 mm 4 m/s 760 mmHg 56%
14:00 +14°C° 0 mm 4 m/s 761 mmHg 54%
15:00 +14°C° 0 mm 4 m/s 761 mmHg 52%
16:00 +13°C° 0 mm 4 m/s 761 mmHg 55%
17:00 +13°C° 0 mm 3 m/s 761 mmHg 57%
18:00 +12°C° 0 mm 3 m/s 761 mmHg 59%
19:00 +12°C° 0 mm 2 m/s 762 mmHg 63%
20:00 +10°C° 0 mm 2 m/s 762 mmHg 66%
21:00 +8°C° 0 mm 2 m/s 762 mmHg 70%
22:00 +8°C° 0 mm 2 m/s 762 mmHg 70%
23:00 +7°C° 0 mm 2 m/s 762 mmHg 71%

11 Mai, Marţi

Timp Temperatura Precipitaţii Vânt Presiune Umiditate
00:00 +8°C° 0 mm 1 m/s 763 mmHg 71%
01:00 +7°C° 0 mm 1 m/s 763 mmHg 71%
02:00 +7°C° 0 mm 1 m/s 763 mmHg 72%
03:00 +7°C° 0 mm 1 m/s 763 mmHg 72%
04:00 +8°C° 0 mm 1 m/s 764 mmHg 69%
05:00 +9°C° 0 mm 1 m/s 764 mmHg 67%
06:00 +10°C° 0 mm 1 m/s 764 mmHg 64%
07:00 +12°C° 0 mm 1 m/s 764 mmHg 58%
08:00 +13°C° 0 mm 1 m/s 764 mmHg 52%
09:00 +15°C° 0 mm 1 m/s 764 mmHg 46%
10:00 +16°C° 0 mm 1 m/s 764 mmHg 43%
11:00 +18°C° 0 mm 1 m/s 764 mmHg 41%
12:00 +19°C° 0 mm 1 m/s 764 mmHg 38%
13:00 +19°C° 0 mm 1 m/s 764 mmHg 38%
14:00 +19°C° 0 mm 1 m/s 763 mmHg 38%
15:00 +19°C° 0 mm 2 m/s 763 mmHg 38%
16:00 +18°C° 0 mm 2 m/s 763 mmHg 44%
17:00 +18°C° 0 mm 1 m/s 763 mmHg 50%
18:00 +18°C° 0 mm 1 m/s 763 mmHg 55%
19:00 +15°C° 0 mm 1 m/s 763 mmHg 58%
20:00 +13°C° 0 mm 0 m/s 763 mmHg 60%
21:00 +12°C° 0 mm 0 m/s 763 mmHg 63%
22:00 +12°C° 0 mm 1 m/s 763 mmHg 64%
23:00 +12°C° 0 mm 1 m/s 763 mmHg 66%
Arată mai mult

Formular de consimțământ

Meteoprog și furnizorii noștri de servicii pot stoca și accesa date personale, precum cookies, identificatori de dispozitiv sau alte tehnologii similare pe dispozitivul dumneavoastră și procesa astfel de date pentru a personaliza conținutul și reclamele, dar și pentru a oferi caracteristici de social media și pentru a analiza traficul.

  • Stocarea și/sau accesarea informațiilor pe dispozitivul dumneavoastră

    Cookies, identificatori de dispozitiv sau alte informații pot fi stocate sau accesate pe dispozitiv în scopurile indicate mai sus.

  • Reclame și conținut personalizat, evaluarea reclamelor și a conținutului, informații despre audiențe și dezvoltarea produselor

    Reclamele și conținutul pot fi personalizate pe baza unui profil. Pot fi adăugate date suplimentare pentru a personaliza mai bine reclamele și conținutul. Performanța reclamelor și conținutului poate fi măsurată. Pot fi obținute informații despre utilizatorii care au văzut reclamele și conținutul. Aceste date pot fi utilizate pentru a dezvolta sau îmbunătăți experiența utilizatorilor, sistemele și software-ul.

Dând clic pe ‘Sunt de acord’, permiteți utilizarea cookie-urilor menționate, a identificatorilor de dispozitiv, balizelor web sau altor tehnologii similare. Setările pot fi modificate din browser-ul dispozitivului dumneavoastră.

În anumite scopuri, interesele legitime pot prima asupra consimțământului. Puteți citi mai multe informații în acest sens în Politica privind Confidențialitatea Datelor și Cookie.